Location: Maiden_LMO
(35.5760°N, 81.2120°W)
Time: 04:11:40
(UTC-04:00)

ADEOS II - Visible Passes

Search period start: 24 March 2017 00:00
Search period end: 03 April 2017 00:00
Orbit: 800 x 801 km, 98.4° (Epoch: 22 March)

Date Brightness Start Highest point End Pass type
(mag) Time Alt. Az. Time Alt. Az. Time Alt. Az.
24 Mar 2.0 05:23:35 10° NNE 05:28:52 87° WNW 05:30:52 39° SSW visible
25 Mar 2.7 04:57:20 10° NNE 05:02:28 52° E 05:04:19 35° SSE visible
25 Mar 3.6 06:38:20 10° NNW 06:41:43 18° WNW 06:45:05 10° WSW visible
26 Mar 3.8 04:31:28 10° NE 04:35:58 28° E 04:37:45 23° SE visible
26 Mar 2.9 06:11:03 10° N 06:15:36 30° WNW 06:18:42 17° WSW visible
27 Mar 4.5 04:06:19 10° ENE 04:09:22 15° E 04:11:11 13° ESE visible
27 Mar 2.2 05:44:15 10° N 05:49:22 54° WNW 05:52:08 26° SW visible
28 Mar 2.0 05:17:46 10° NNE 05:23:03 84° ESE 05:25:35 32° S visible
29 Mar 3.0 04:51:35 10° NNE 04:56:38 45° E 04:59:01 28° SSE visible
29 Mar 3.5 06:32:17 10° NNW 06:35:58 20° WNW 06:39:38 10° WSW visible
30 Mar 4.0 04:25:49 10° NE 04:30:07 25° E 04:32:27 19° SE visible
30 Mar 2.8 06:05:07 10° N 06:09:49 34° WNW 06:13:24 16° SW visible
31 Mar 4.7 04:00:57 10° ENE 04:03:30 14° E 04:05:53 10° ESE visible
31 Mar 2.1 05:38:23 10° N 05:43:34 61° WNW 05:46:50 23° SSW visible
01 Apr 2.2 05:11:57 10° NNE 05:17:13 74° ESE 05:20:16 26° S visible
02 Apr 3.2 04:45:51 10° NNE 04:50:47 40° E 04:53:41 22° SSE visible
02 Apr 3.3 06:26:15 10° NNW 06:30:11 22° WNW 06:34:08 10° WSW visible
